Regional Weather Roundup
Issued by NWS

Home | Current Version | Previous Version | Text Only | Print | Product List | Glossary Off
Versions: 1 2 3 4 5 6 7 8 9 10 11 12 13 14 15 16 17 18 19 20 21 22 23 24 25 26 27 28 29 30 31 32 33 34 35 36 37 38 39 40 41 42 43 44 45 46 47 48 49 50

000
ASUS43 KOAX 180510
RWRNE

WEATHER ROUNDUP FOR NEBRASKA
NATIONAL WEATHER SERVICE OMAHA NE
1100 PM CST FRI NOV 17 2017

NOTES: SATELLITE DATA IS BEING USED TO AUGMENT CLOUD COVER ABOVE
       12000 FEET.
       "FAIR" INDICATES FEW OR NO CLOUDS BELOW 12,000 FEET WITH NO
       SIGNIFICANT WEATHER AND/OR OBSTRUCTIONS TO VISIBILITY.


NEZ001>004-019>022-054>056-180600-
NEBRASKA PANHANDLE

CITY           SKY/WX    TMP DP  RH WIND       PRES   REMARKS
SCOTTSBLUFF    CLOUDY    39  29  67 NW16      29.84R WCI  30
ALLIANCE       CLOUDY    36  34  92 N18       29.80R WCI  26
CHADRON        CLOUDY    37  35  92 NW9       29.85R WCI  30
GORDON         CLOUDY    35  33  94 NW6       29.81R WCI  30
KIMBALL        CLOUDY    35  32  89 NW23G30   29.83R WCI  23
SIDNEY         CLOUDY    38  34  85 N18G28    29.79R WCI  28
$$

NEZ057>060-069>072-079>082-180600-
SOUTHWEST NEBRASKA

CITY           SKY/WX    TMP DP  RH WIND       PRES   REMARKS
NORTH PLATTE   LGT RAIN  41  38  89 N6        29.71R
LEXINGTON      RAIN      42  37  83 N6        29.70R
MCCOOK         CLOUDY    43  39  86 N17       29.68S
OGALLALA       CLOUDY    42  40  93 CALM      29.74R
$$

NEZ005>010-023>029-035>040-094-180600-
NORTH CENTRAL NEBRASKA

CITY           SKY/WX    TMP DP  RH WIND       PRES   REMARKS
VALENTINE      MIX PCPN  37  34  89 N6        29.79R WCI  32
AINSWORTH      CLOUDY    37  35  94 N16       29.74F WCI  27
BROKEN BOW     LGT RAIN  40  37  89 N13       29.70R WCI  32
O`NEILL        CLOUDY    40  37  90 N12       29.73R WCI  32
ORD            CLOUDY    40  37  89 N10       29.67F WCI  33
THEDFORD       CLOUDY    38  36  91 N9        29.75R WCI  32
$$

NEZ041-046>049-061>064-073>077-083>087-180600-
SOUTH CENTRAL NEBRASKA

CITY           SKY/WX    TMP DP  RH WIND       PRES   REMARKS
GRAND ISLAND   RAIN      41  39  93 N20       29.67R
AURORA         CLOUDY    42  37  81 N21       29.66R
HASTINGS       LGT RAIN  41  36  82 N18G30    29.65R
HEBRON         CLOUDY    46  38  74 N12G20    29.57R
HOLDREGE       LGT RAIN  42  37  84 N15G24    29.66F
YORK           LGT RAIN  41  41 100 N23G35    29.61F
$$

NEZ011>018-030>034-042>045-180600-
NORTHEAST NEBRASKA

CITY           SKY/WX    TMP DP  RH WIND       PRES   REMARKS
NORFOLK        CLOUDY    40  38  93 N12       29.66S WCI  33
ALBION         RAIN      41  39  93 N12       29.70R
BLAIR          CLOUDY    47  41  80 N16G26    29.61R
COLUMBUS       MOCLDY    43  38  82 N14G22    29.66S
FREMONT        DRIZZLE   45  38  78 N15G21    29.63R
TEKAMAH        LGT RAIN  44  38  79 N16       29.67R
WAYNE          LGT RAIN  40  38  91 N10       29.67S WCI  34
$$

NEZ050>053-065>068-078-088>093-180600-
SOUTHEAST NEBRASKA

CITY           SKY/WX    TMP DP  RH WIND       PRES   REMARKS
LINCOLN        CLOUDY    47  39  74 N26G33    29.57F
OMAHA EPPLEY   CLOUDY    48  41  76 N16       29.62R
BEATRICE       CLOUDY    50  41  72 N20G25    29.53F
FALLS CITY     CLOUDY    57  55  93 N12       29.47F FOG
NEBRASKA CITY  LGT RAIN  53  53 100 N14       29.55R
PLATTSMOUTH    CLOUDY    50  46  86 NW14      29.59R
$$

NEZ044-045-051>053-067-180600-
OMAHA AREA

CITY           SKY/WX    TMP DP  RH WIND       PRES   REMARKS
OMAHA EPPLEY   CLOUDY    48  41  76 N16       29.62R
BLAIR          CLOUDY    47  41  80 N16G26    29.61R
FREMONT        DRIZZLE   45  38  78 N15G21    29.63R
MILLARD        CLOUDY    50  43  77 N8G20     29.59R
OFFUTT AFB     CLOUDY    49  43  78 N13       29.59R
PLATTSMOUTH    CLOUDY    50  46  86 NW14      29.59R
WAHOO          LGT RAIN  45  40  83 N21G26    29.58F
$$



USA.gov is the U.S. government's official web portal to all federal, state and local government web resources and services.